#timestamp,LO_Frequency,Hit,StdDev 
1561816815.9,286046997.1,N
1561816835.7,286046996.5,N
1561816855.6,286046999.5,N
1561816875.4,286046999.2,N
1561816895.3,286046999.5,N
1561816915.1,286046997.5,N
1561816916.0,286046997.5,N
1561816935.8,286046997.2,N
1561816955.7,286046996.7,N
1561816975.5,286046996.5,N
1561816995.3,286046996.5,N
1561817015.2,286046997.2,N
1561817035.0,286046997.8,N
1561817035.9,286046997.8,N
1561817055.8,286046994.9,Y
1561817075.6,286046999.0,P
1561817095.5,286046999.2,N
1561817115.3,286046999.1,N
1561817135.1,286046998.3,Y
1561817155.9,286047000.9,P
1561817175.7,286046998.2,N
1561817195.5,286046998.3,N
1561817215.4,286046998.6,N
1561817235.2,286046998.4,N
1561817255.1,286047000.4,N
1561817256.0,286047000.4,N
1561817275.8,286047000.3,N
1561817295.6,286046999.8,N
1561817315.5,286047001.0,N
1561817335.3,286047000.8,N
1561817355.2,286046999.3,N
1561817375.9,286046999.1,N
1561817395.7,286046996.9,Y
1561817415.6,286046998.3,P
1561817435.4,286046998.6,N
1561817455.2,286046998.1,P
1561817475.1,286046999.1,N
1561817476.0,286046999.1,N
1561817495.8,286046999.4,N
1561817515.7,286046999.4,N
1561817535.5,286046999.5,N
1561817555.3,286046998.3,Y
1561817575.2,286047002.8,P
1561817595.0,286047000.9,N
1561817595.9,286047000.9,N
1561817615.8,286046998.6,N
1561817635.6,286047000.9,N
1561817655.2,286046998.2,N
1561817675.0,286047001.2,N
1561817676.0,286047001.2,N
1561817695.8,286047000.9,N
1561817715.6,286047000.4,N
1561817735.5,286047002.7,N
1561817755.3,286046999.8,N
1561817775.2,286047000.7,N
1561817795.0,286047000.7,N
1561817795.9,286047000.7,N
1561817815.7,286046998.8,N
1561817835.6,286046998.5,N
1561817855.4,286046999.0,N
1561817875.3,286046998.5,N
1561817895.1,286046998.9,N
1561817896.0,286046998.9,N
1561817915.8,286046996.7,N
1561817935.7,286046997.0,N
1561817955.5,286046998.3,N
1561817975.3,286047000.5,N
1561817995.2,286047002.4,N
1561818015.0,286047000.0,N
1561818015.9,286047000.0,N
1561818035.8,286047000.5,N
1561818055.6,286047000.6,N
1561818075.4,286046998.1,N
1561818095.3,286047002.5,N
1561818115.1,286047002.5,N
1561818135.9,286047003.3,N
1561818155.7,286047006.8,Y
1561818175.5,286047005.3,P
1561818195.4,286047005.6,N
1561818215.2,286047003.2,N
1561818235.1,286047005.9,N
1561818236.0,286047005.9,N
1561818255.8,286047005.7,N
1561818275.6,286047005.9,N
1561818295.5,286047004.4,N
1561818315.3,286047002.6,N
1561818335.1,286046999.9,N
1561818355.9,286047004.0,N
1561818375.7,286047001.5,N
1561818395.6,286047002.5,N
1561818415.4,286047000.0,N
1561818435.2,286047002.8,N
1561818455.1,286047002.4,N
1561818456.0,286047002.4,N
1561818475.8,286047002.2,N
1561818495.7,286047003.2,N
1561818515.5,286047005.5,N
1561818535.3,286047007.1,Y
1561818555.2,286047004.0,P
1561818575.0,286047003.6,P
1561818575.9,286047003.6,P
1561818595.8,286047005.6,Y
1561818615.6,286047000.5,P
1561818635.4,286046999.7,N
1561818655.3,286047000.1,N
1561818675.1,286047001.3,N
1561818725.9,286046999.9,E
1561818735.8,286046999.8,N
1561818755.6,286047000.1,P
1561818775.5,286047000.1,N
1561818795.3,286047000.1,N
1561818815.2,286047001.2,Y
1561818835.9,286046999.3,P
1561818855.7,286046997.0,P
1561818875.6,286046996.5,N
1561818895.4,286046998.0,N
1561818915.2,286046997.5,N
1561818935.1,286046995.0,Y
1561818936.0,286046995.0,P
1561818955.8,286046997.0,N
1561818975.7,286046997.3,N
1561818995.5,286046995.0,Y
1561819015.4,286046998.8,P
1561819035.2,286047000.9,N
1561819055.0,286047000.3,N
1561819055.9,286047000.3,N
1561819075.8,286047001.0,N
1561819095.6,286047000.0,N
1561819115.4,286047000.7,N
1561819135.3,286047002.4,N
1561819155.1,286046999.7,N
1561819175.9,286047001.0,N
1561819195.7,286047001.2,N
1561819215.5,286047000.5,N
1561819235.4,286047002.6,N
1561819255.2,286047002.4,N
1561819275.0,286047000.1,N
1561819276.0,286047000.1,N
1561819295.8,286047002.4,N
1561819315.6,286047001.7,N
1561819335.5,286047002.3,N
1561819355.3,286047002.2,N
1561819375.1,286047001.6,N
1561819395.9,286047001.6,N
1561819415.7,286047002.7,N
1561819435.6,286047000.4,N
1561819455.4,286046999.9,N
1561819475.2,286047000.6,N
1561819495.1,286047000.9,N
1561819496.0,286047000.9,N
1561819515.8,286047000.5,N
1561819535.7,286047000.0,N
1561819555.5,286046999.9,N
1561819575.3,286046999.7,N
1561819595.2,286047002.8,N
1561819615.0,286047000.5,N
1561819615.9,286047000.5,N
1561819635.7,286047000.9,N
1561819655.6,286047000.8,N
1561819675.4,286047000.4,N
1561819695.3,286046999.9,N
1561819715.1,286047000.2,N
1561819716.0,286047000.2,N
1561819735.8,286047002.5,N
1561819755.7,286047002.8,N
1561819775.5,286046999.7,N
1561819795.4,286047000.0,N
1561819815.2,286047000.0,N
1561819835.0,286047000.5,N
1561819835.9,286047000.5,N
1561819855.8,286047000.0,N
1561819875.6,286047000.0,N
1561819895.4,286047000.4,N
1561819915.3,286047001.1,N
1561819935.1,286046998.5,N
1561819955.9,286046998.1,N
1561819975.7,286046998.9,N
1561819995.5,286046997.3,N
1561820015.4,286046997.8,N
1561820035.2,286046997.1,N
1561820055.0,286046996.6,N
1561820056.0,286046996.6,N
1561820075.8,286046997.1,N
1561820095.6,286046996.5,N
1561820115.5,286046999.2,N
1561820135.3,286046999.2,N
1561820155.2,286046998.3,N
1561820175.9,286046999.0,N
1561820195.7,286046999.6,N
1561820215.6,286046996.7,N
1561820235.4,286046999.0,N
1561820255.2,286046999.1,N
1561820275.1,286046999.6,N
1561820276.0,286046999.6,N
1561820295.8,286046998.8,N
1561820315.7,286046999.3,N
1561820335.5,286046998.6,N
1561820355.3,286046998.8,N
1561820375.2,286046998.6,N
1561820395.0,286046999.1,N
1561820395.9,286046999.1,N
